User: anonymous   Login
Location: Caltech
(34.1382°N, 118.1253°W)
Time: 06:15:33
(UTC-08:00)
Language:

IDEFIX/ARIANE 42P - Orbit

View from above orbital plane
View from above orbital plane
View from above satellite
View from above satellite

Ground track
Ground track

The orbit data is extracted from the following two-line orbital elements,

1 27422U 02021B   16338.14001413 -.00000031  00000-0  35687-5 0  9996
2 27422  98.2277 343.3010 0013495  97.3975 262.8742 14.29252975758670
Epoch (UTC): 03 December 2016 03:21:37
Eccentricity: 0.0013495
inclination: 98.2277°
perigee height: 784 km
apogee height: 804 km
right ascension of ascending node: 343.3010°
argument of perigee: 97.3975°
revolutions per day: 14.29252975
mean anomaly at epoch: 262.8742°
orbit number at epoch: 75867

The dashed part of the orbit path shows where the satellite is in the earth's shadow,  

DLR